Orbital Elements at Epoch 2459200.5 (2020-Dec-17.0) TDB
Reference: JPL 17 (heliocentric ecliptic J2000)
Element | Value | Uncertainty (1-sigma) | Units |
e | .1808190813443247 | 4.5387e-08 | |
a | 2.648521354526689 | 1.8048e-08 | au |
q | 2.169618156280347 | 1.2705e-07 | au |
i | 10.50825165791027 | 8.2509e-06 | deg |
node | 195.3678828299389 | 2.4178e-05 | deg |
peri | 105.934005705286 | 3.4345e-05 | deg |
M | 329.1173068529171 | 2.6714e-05 | deg |
tp | 2459335.556755003476 (2021-May-01.05675500) | 0.00011749 | TDB |
period | 1574.358543462845 4.31 | 1.6093e-05 4.406e-08 | d yr |
n | .2286645576986358 | 2.3373e-09 | deg/d |
Q | 3.127424552773032 | 2.1312e-08 | au |
|
| | Orbit Determination Parameters
Additional Information
|